Regional Weather Roundup
Issued by NWS

Home | Current Version | Previous Version | Text Only | Print | Product List | Glossary On
Versions: 1 2 3 4 5 6 7 8 9 10 11 12 13 14 15 16 17 18 19 20 21 22 23 24 25 26 27 28 29 30 31 32 33 34 35 36 37 38 39 40 41 42 43 44 45 46 47 48 49 50
000
ASUS46 KLOX 010213
RWRCA

SOUTHERN CALIFORNIA WEATHER ROUNDUP
NATIONAL WEATHER SERVICE OXNARD CALIFORNIA
700 PM PDT SAT APR 30 2016

NOTE: "FAIR" INDICATES FEW OR NO CLOUDS BELOW 12,000 FEET WITH NO
SIGNIFICANT WEATHER AND/OR OBSTRUCTIONS TO VISIBILITY.

  -  STATIONS PRECEEDED BY AN ASTERISK (*) ARE NOT NWS OR FAA
     STATIONS AND ARE NOT SUBJECT TO NWS AND FAA QUALITY CONTROL.

CAZ041-042-087-010300-
LA AND ORANGE COUNTY COASTAL AREAS


CITY           SKY/WX    TMP DP  RH WIND       PRES   REMARKS
L.A. DOWNTOWN  PTCLDY    63  47  55 CALM      29.80R
L.A. AIRPORT   PTCLDY    62  48  60 SW8       29.80S
LONG BEACH     CLEAR     64  52  64 VRB3      29.81R

CITY           SKY/WX    TMP DP  RH WIND       PRES   REMARKS
AVALON           N/A     63 N/A N/A MISG        N/A
FULLERTON      PTCLDY    67  44  43 VRB5      29.80R
*GETTY CENTER    N/A     57  50  77 S3          N/A
HAWTHORNE      CLEAR     63  48  58 W6        29.81R
*LEO CARRILLO    N/A     63  45  52 W7          N/A
*LOS ALAMITOS  FAIR      63  53  69 SW9       29.82R
*REDONDO BEACH   N/A     61  51  70 CALM      29.81R
SANTA ANA      PTCLDY    65  46  50 W6        29.81R
STA MONICA APT PTCLDY    61  50  67 SW6       29.80R
*STA MON PIER    N/A     59  53  83 SW2       29.74R
TORRANCE       PTCLDY    64  50  59 W10       29.81R
*UCLA            N/A     61  48  63 S3        29.77R

$$

CAZ547-548-048-010300-
LA COUNTY VALLEYS AND INLAND EMPIRE


CITY           SKY/WX    TMP DP  RH WIND       PRES   REMARKS
BURBANK        CLEAR     63  46  54 S8        29.78R
VAN NUYS       CLEAR     69  45  41 VRB3      29.78R

CITY           SKY/WX    TMP DP  RH WIND       PRES   REMARKS
CORONA AIRPORT CLOUDY    66  48  52 W10G17    29.78S
*CHATSWORTH      N/A     67  45  45 W2        29.79S
CHINO          MOCLDY    66  46  48 SW18      29.79R
*CLAREMONT       N/A     59  48  66 SW8         N/A
MARCH AFB      MOCLDY    63  48  58 W12       29.78R
*NORTHRIDGE      N/A     68  39  34 W3          N/A
ONTARIO        MOCLDY    64  46  52 W17G23    29.77S
*PASADENA        N/A     64  50  59 CALM        N/A
RIVERSIDE      CLOUDY    66  46  48 W12       29.78R
SAN BERNARDINO MOCLDY    66  48  52 W9        29.78R
*SAN GABRIEL     N/A     64  48  57 SW7       29.86S
*SAN RAFAEL HI   N/A     61  41  48 E6          N/A
*SAUGUS          N/A     70  45  41 S14         N/A
*WHITEMAN AP   PTCLDY    64  46  52 SE8       29.82R
*WHITTIER HILL   N/A     61  45  56 SW10        N/A
*WOODLAND HILL   N/A     68  43  40 SW6         N/A

$$

CAZ054-055-010300-
LA AND SAN BERNARDINO COUNTY MOUNTAINS


CITY           SKY/WX    TMP DP  RH WIND       PRES   REMARKS
*ACTON           N/A     64  38  38 NE7G21      N/A
*BIG BEAR AIRP CLOUDY    37  36  93 N3        29.89R
*BIG PINES       N/A     40  37  91 CALM        N/A
*CHILAO          N/A     50  38  62 N10G35      N/A
SANDBERG       CLEAR     57  34  41 NW14      29.88R
*WARM SPRINGS    N/A     62  46  55 W3          N/A

$$

CAZ028-029-059-060-099-010300-
ANTELOPE VALLEY AND SURROUNDING AREAS


CITY           SKY/WX    TMP DP  RH WIND       PRES   REMARKS
LANCASTER      PTCLDY    68  38  33 N8        29.81R
PALMDALE       MOCLDY    64  44  48 NW7       29.81S
*POPPY PARK      N/A     67  35  29 NE13        N/A

CITY           SKY/WX    TMP DP  RH WIND       PRES   REMARKS
29 PALMS       PTCLDY    65  39  38 N16       29.82R
BARSTOW/DAGGET PTCLDY    66  42  41 N9        29.77F
BISHOP         CLOUDY    62  30  29 N23G30    29.93R
CHINA LAKE     CLOUDY    69  35  28 N17G26    29.80R
EDWARDS AFB    MOCLDY    69  36  30 NE15      29.78R
MOJAVE         PTCLDY    66  36  32 NW14      29.83R
NEEDLES        PTCLDY    69  46  43 N15       29.70R
VICTORVILLE    MOCLDY    64  36  34 N12       29.82S

$$

CAZ039-040-010300-
VENTURA AND SANTA BARBARA COUNTY COAST


CITY           SKY/WX    TMP DP  RH WIND       PRES   REMARKS
CAMARILLO      CLEAR     60  49  66 S8        29.79R
NWS OXNARD       N/A     60  49  67 SW3       29.78R
OXNARD AIRPORT CLEAR     59  52  77 SW6       29.78S
*POINT MUGU    PTCLDY    59  50  72 SW8       29.80R
SBA APT/GOLETA CLEAR     60  51  72 SE8       29.76S
*SANTA BARBARA   N/A     64  49  57 CALM      29.84S
*VENTURA         N/A     59  51  75 SW1       29.77R

$$

CAZ044-045-010300-
VENTURA COUNTY VALLEYS


CITY           SKY/WX    TMP DP  RH WIND       PRES   REMARKS
*SIMI VALLEY     N/A     64  46  52 W2        29.76R
*WESTLAKE VILL   N/A     63  43  48 CALM      29.78S
*OJAI            N/A     67  49  52 CALM      29.72R
*FILLMORE        N/A     68  48  48 CALM      29.68R

$$

CAZ053-010300-
VENTURA COUNTY MOUNTAINS


CITY           SKY/WX    TMP DP  RH WIND       PRES   REMARKS
*LOCKWOOD VLY    N/A     52  27  37 NE7         N/A
*ROSE VALLEY     N/A     63  46  55 MISG        N/A

$$

CAZ034-035-036-010300-
CENTRAL COAST AND SANTA YNEZ VALLEY


CITY           SKY/WX    TMP DP  RH WIND       PRES   REMARKS
SAN LUIS OBISP CLEAR     61  48  62 W9        29.80S
SANTA MARIA    CLEAR     60  48  64 NW10      29.81S

CITY           SKY/WX    TMP DP  RH WIND       PRES   REMARKS
*CAL POLY SLO    N/A     63  50  63 SW6G15      N/A
*LOMPOC        CLEAR     58  50  75 W13       29.82S
*PISMO BEACH     N/A     57  51  78 W2        29.80S
*SANTA YNEZ    FAIR      63  41  45 W9        29.80S

$$

CAZ037-038-051-010300-
SAN LUIS OBISPO COUNTY INTERIOR AND CUYAMA VALLEY


CITY           SKY/WX    TMP DP  RH WIND       PRES   REMARKS
*CUYAMA          N/A     66  38  36 NE3       29.78S
PASO ROBLES    CLEAR     74  39  28 S8        29.77R

$$

CAZ032-033-061-010300-
SOUTHERN DESERTS


CITY           SKY/WX    TMP DP  RH WIND       PRES   REMARKS
BLYTHE         MOCLDY    70  45  40 N14       29.68R
IMPERIAL       PTCLDY    76  43  30 NW15      29.66R
PALM SPRINGS   MOCLDY    72  46  39 NW15      29.71R
THERMAL        CLOUDY    75  44  33 NW14      29.66R

$$

ELSEWHERE ACROSS THE WESTERN UNITED STATES AND MEXICO


CITY           SKY/WX    TMP DP  RH WIND       PRES   REMARKS
DENVER, CO     LGT SNOW  33  30  88 N15       30.12R FOG     WCI  23
GRAND CANYON,  CLOUDY    38  34  85 NE13      29.89R WCI  30
HONOLULU, HI   MOSUNNY   84  64  51 NE17G26   30.05F
KAHULUI, MAUI  MOSUNNY   84  66  54 NE21G33   30.03S
LAKE TAHOE, CA PTCLDY    46  31  55 CALM      30.04F
LAS VEGAS, NV  CLOUDY    57  49  74 W8        29.75F
MAMMOTH LAKES, FAIR      44  28  53 N12G18    30.05S
MEXICO CITY, M MOCLDY    73  32  21 SE13G24   30.17R
PHOENIX, AZ    CLOUDY    67  43  41 N15G23    29.66R
PORTLAND, OR   MOSUNNY   68  42  38 NW12G18   30.22F
RENO, NV       MOCLDY    60  28  29 NE14      30.02F
SALT LAKE CITY CLOUDY    57  27  31 VRB3      29.95R
SAN DIEGO, CA  PTCLDY    64  50  60 NW8       29.84R
SAN FRANCISCO, MOSUNNY   64  45  49 W18       29.82F
SAN JOSE, CA   MOSUNNY   75  42  30 W13       29.79F
SEATTLE, WA    MOSUNNY   66  40  38 N8        30.30F
TIJUANA, MEX   PTCLDY    59  46  63 NW8       29.85R

$$

STATION/POSITION TIME  TEMP    WIND        PRES    VSBY  WAVE
                       AIR SEA DIR/SP/G                  HT/PER
                 (UTC) (F)     (DEG/KT/KT) (MB)    (MI)  (FT/S)
POINT ARGUELLO B NOT AVBL
WEST SANTA BARBA 0150   54 53  300/ 14/ 17 1008.7F         8/10
POINT CONCEPTION NOT AVBL
EAST SANTA BARBA 0100   58 57  270/ 16/ 19 1008.0F
SANTA MONICA BAY 0150   59 60  160/  4/  6 1009.1S         4/13



USA.gov is the U.S. government's official web portal to all federal, state and local government web resources and services.